Overview Statistics Trail Chart Weather Telemetry Raw packets
 

This is the latest recevied weather packets stored in our database for station/object N0MR. If no packets are shown the sender has not sent any weather packets the latest 10 day(s).

<< 12 13 14 15 16 17 18 >>
Time Temp. Humidity Pressure Rain* Wind** Luminosity Snow
1788401198 16.11° C 85% 1012.2 hPa 0 mm - - -
1788400599 16.11° C 85% 1012.1 hPa 0 mm - - -
1788399999 16.11° C 85% 1012.1 hPa 0 mm - - -
1788399398 16.67° C 82% 1011.9 hPa 0 mm - - -
1788398798 16.67° C 82% 1011.9 hPa 0 mm - - -
1788398198 17.78° C 79% 1011.7 hPa 0 mm - - -
1788397599 17.78° C 79% 1011.7 hPa 0 mm - - -
1788396998 18.89° C 76% 1011.5 hPa 0 mm - - -
1788395199 22.22° C 64% 1011.5 hPa 0 mm - - -
1788394598 22.22° C 64% 1011.5 hPa 0 mm - - -
1788394000 22.78° C 59% 1011.4 hPa 0 mm - - -
1788393399 22.78° C 59% 1011.4 hPa 0 mm - - -
1788392799 23.89° C 55% 1011.3 hPa 0 mm - - -
1788392199 23.89° C 55% 1011.3 hPa 0 mm - - -
1788391600 24.44° C 53% 1011.2 hPa 0 mm - - -
1788391000 24.44° C 53% 1011.2 hPa 0 mm - - -
1788390400 25° C 51% 1011.3 hPa 0 mm - - -
1788389799 25° C 51% 1011.3 hPa 0 mm - - -
1788389200 25.56° C 49% 1011.3 hPa 0 mm - - -
1788388599 25.56° C 49% 1011.3 hPa 0 mm - - -
1788387999 25.56° C 49% 1011.2 hPa 0 mm - - -
1788387400 25.56° C 49% 1011.2 hPa 0 mm - - -
1788386800 26.11° C 46% 1011.1 hPa 0 mm - - -
1788386201 26.11° C 46% 1011.1 hPa 0 mm - - -
1788385610 26.11° C 46% 1011.1 hPa 0 mm - - -

* Rain latest hour (hover to see other rain measurements)
** Current wind speed in m/s (hover to see current wind gust speed)